Temp
13 13 13 13 12 12 12 12 12 11 11 10 10 9 8 8 8 8 9 9 9 9
14 13 13 13 13 13 12 12 12 11 11 10 10 10 9 8 8 8 8 8 8 8
14 14 14 13 13 13 12 12 12 11 11 10 10 9 9 9 8 8 8 8 8 8
13 13 13 13 13 13 13 12 12 12 11 10 10 10 9 9 8 8 8 8 8 8
12 12 12 12 12 12 12 12 12 11 11 11 10 10 9 9 9 8 8 8 7 7
11 11 11 11 11 11 11 11 11 11 11 11 10 10 9 9 9 8 8 8 7 7
10 10 10 10 10 10 10 10 10 10 10 10 10 9 9 9 8 8 8 8 8 7
8 8 9 9 9 9 9 9 9 9 10 10 9 9 9 9 8 8 8 8 8 8
8 8 8 8 8 8 8 9 9 9 9 9 9 9 9 8 8 8 8 7 8 8
7 7 7 7 7 7 7 7 8 8 8 8 8 8 8 8 7 7 7 7 7 7
6 5 6 6 6 6 6 6 7 7 7 7 7 7 7 7 6 6 6 6 6 6
5 5 5 5 5 5 5 6 6 6 6 6 7 7 7 6 6 6 6 6 6 6
5 5 5 5 5 5 5 5 5 6 6 6 6 6 6 6 6 5 6 6 6 5
5 5 5 5 5 5 5 5 5 5 5 5 5 6 5 5 5 5 5 5 5 5
Height
812 810 807 805 804 802 802 801 800 799 798 797 796 796 795 794 793 793 792 791 791 790
809 806 803 801 799 798 797 796 795 794 793 793 792 791 791 790 789 789 789 789 788 786
806 803 801 798 796 795 794 792 790 789 788 788 788 787 786 785 785 785 785 784 783 781
803 800 798 796 794 791 789 787 785 784 783 782 781 781 780 780 781 781 780 779 778 777
800 797 795 792 790 788 785 783 781 780 778 776 775 775 774 775 776 776 775 775 775 773
796 794 791 788 786 783 780 778 776 774 772 770 768 768 768 768 769 769 769 769 768 768
792 789 786 784 781 779 776 773 771 768 766 763 762 761 761 761 761 761 761 762 762 761
789 786 783 780 777 774 772 769 766 763 761 758 756 755 755 755 755 754 754 754 754 754
787 783 780 777 773 770 766 763 761 759 756 753 751 750 749 749 748 748 747 747 748 748
784 780 776 773 769 765 762 759 756 754 751 748 747 745 744 743 741 740 740 740 740 741
780 777 774 770 767 763 759 757 754 750 747 744 743 741 739 738 736 735 734 734 735 735
776 772 769 766 763 760 757 754 751 748 745 742 739 737 735 734 731 729 728 728 729 729
772 768 765 762 759 757 754 751 748 745 742 739 736 734 731 730 728 726 725 724 724 724
769 765 761 758 756 753 750 748 746 742 739 737 735 732 729 728 724 723 722 719 718 719
Wind_Speed
14 17 19 20 21 22 21 21 18 16 16 15 13 12 10 9 9 9 11 13 12 13
13 14 16 16 17 19 19 19 18 17 18 17 16 14 12 12 11 10 10 11 13 15
15 15 15 16 16 16 17 17 17 18 18 20 19 17 16 15 14 14 14 15 15 14
17 17 17 17 16 16 16 16 16 17 18 20 21 20 19 19 18 18 17 16 16 16
18 18 19 19 18 18 18 17 17 18 20 21 22 22 22 22 21 20 19 18 17 18
19 19 20 20 20 19 18 18 20 21 22 23 24 24 23 24 24 23 22 21 20 20
20 19 20 20 20 20 20 21 21 21 23 23 23 24 23 24 26 26 25 24 23 22
20 20 19 19 19 19 20 20 20 22 22 21 21 22 23 24 26 27 27 26 25 24
18 19 20 21 21 20 20 22 22 22 22 22 20 19 19 21 24 25 27 28 26 25
19 21 21 22 21 21 22 21 20 20 19 20 19 18 17 17 20 23 25 25 25 25
19 21 22 21 20 20 20 18 20 18 16 17 17 15 14 13 16 21 23 23 23 24
18 19 20 22 22 21 20 20 20 19 18 17 17 14 12 11 13 17 20 21 21 21
15 16 18 19 19 19 18 20 20 20 16 15 16 12 10 9 11 15 18 19 19 18
15 15 15 16 17 18 19 19 18 18 17 15 13 13 11 10 11 13 17 18 20 18
Wind_Direction
307 300 295 296 296 294 295 296 296 289 285 284 288 287 286 276 271 280 286 287 286 289
338 328 319 313 301 295 295 295 292 285 279 277 275 276 276 272 268 263 270 276 279 281
338 337 332 322 314 306 302 299 295 288 279 274 272 272 270 269 267 262 256 262 272 277
329 328 322 316 315 310 303 303 298 291 281 273 269 267 265 268 267 262 263 262 265 270
323 321 318 314 308 308 303 299 299 295 286 279 272 267 263 263 263 262 263 265 265 268
323 322 320 318 316 313 306 301 300 298 291 283 275 269 264 261 263 262 262 262 261 264
324 322 319 318 319 315 310 306 305 304 300 291 278 272 267 262 260 261 262 262 261 261
324 322 321 320 320 318 316 313 312 309 305 300 284 275 271 266 263 261 262 261 260 260
327 327 326 326 326 323 320 317 313 308 305 300 295 289 282 278 270 267 265 265 264 264
327 325 325 325 326 326 324 322 320 318 313 305 302 298 289 280 271 267 265 264 264 264
334 329 329 329 330 328 325 325 324 326 324 315 315 312 304 289 272 267 268 266 266 266
335 330 332 334 334 333 328 326 324 322 320 316 316 316 310 294 277 271 271 272 271 271
334 332 331 332 333 333 331 326 326 325 327 322 319 324 319 303 285 279 282 285 285 282
335 331 332 329 335 334 332 330 329 326 330 329 325 325 324 314 299 290 289 290 294 295